Date,TemperatureHighF,TemperatureAvgF,TemperatureLowF,DewpointHighF,DewpointAvgF,DewpointLowF,HumidityHigh,HumidityAvg,HumidityLow,PressureMaxIn,PressureMinIn,WindSpeedMaxMPH,WindSpeedAvgMPH,GustSpeedMaxMPH,PrecipitationSumIn
2012-10-29,44.8,42.7,41.5,44.0,42.0,40.7,98,97,97,29.43,29.23,10,7,0,1.28
2012-10-30,50.6,45.5,43.2,44.4,41.4,40.1,96,86,74,29.37,29.21,9,1,4,0.57
2012-10-31,45.3,41.3,39.8,40.5,37.9,35.6,93,88,75,29.42,29.37,1,0,5,0.00
2012-11-2,40.4,37.5,34.9,35.2,33.7,32.6,94,86,74,29.91,29.73,3,1,6,0.04
2012-11-3,41.8,37.5,34.9,33.6,31.8,28.8,94,80,69,30.10,29.91,4,1,10,0.01
2012-11-4,36.3,34.3,32.1,31.6,28.8,26.5,94,80,72,30.12,30.09,3,0,8,0.02
2012-11-5,35.5,33.5,31.0,28.7,26.2,21.7,85,75,65,30.22,30.10,3,0,6,0.00
2012-11-6,42.8,33.7,28.2,27.3,23.5,20.6,83,67,49,30.21,30.05,3,0,5,0.00
2012-11-7,42.3,30.9,22.1,29.1,23.8,19.6,95,77,47,30.12,30.05,5,1,9,0.00
2012-11-8,43.6,28.9,17.6,29.0,22.1,16.4,97,78,44,30.17,30.11,3,0,7,0.00
2012-11-9,47.9,40.0,24.6,41.3,34.9,22.9,95,82,65,30.20,30.12,4,1,8,0.00
2012-11-10,55.0,47.7,41.7,45.0,41.9,39.0,91,81,65,30.26,30.13,2,0,5,0.01
2012-11-11,70.8,62.1,53.6,45.2,40.1,36.3,73,45,29,30.23,30.10,5,2,10,0.00
2012-11-12,71.6,58.7,39.4,53.0,44.3,35.1,92,62,42,30.17,29.83,8,5,14,0.44
2012-11-13,40.0,36.4,34.5,34.6,24.8,21.5,81,63,51,30.55,30.17,5,1,9,0.00
2012-11-14,40.7,36.0,30.0,30.9,26.9,22.7,91,70,55,30.61,30.48,3,0,5,0.00
2012-11-15,49.4,34.4,23.9,30.7,26.7,22.1,95,76,44,30.48,30.32,2,0,5,0.00
2012-11-16,50.4,34.2,21.8,35.2,29.1,20.6,97,83,54,30.51,30.34,1,0,5,0.00
2012-11-17,51.4,36.6,25.8,40.5,32.6,24.6,97,87,60,30.64,30.51,1,0,3,0.00
2012-11-18,54.4,37.5,26.1,37.2,30.9,25.1,97,80,43,30.62,30.48,3,0,6,0.01
2012-11-19,53.2,37.5,24.2,36.2,31.4,23.0,97,81,50,30.48,30.23,2,0,3,0.00
2012-11-20,53.2,39.8,29.9,38.8,33.8,28.5,95,81,54,30.23,30.09,1,0,3,0.00
2012-11-21,56.5,36.9,23.7,39.7,31.2,22.6,98,83,41,30.25,30.16,1,0,4,0.00
2012-11-22,58.6,45.1,28.2,42.1,34.5,26.2,95,68,49,30.20,29.93,5,1,12,0.00
2012-11-23,54.6,46.7,33.8,46.9,35.6,24.8,90,67,49,29.93,29.63,9,5,18,0.06
2012-11-24,38.0,32.7,30.7,27.3,23.5,19.4,86,69,53,29.95,29.74,8,3,14,0.00
2012-11-25,33.1,30.8,29.3,28.8,24.6,19.4,93,78,62,29.94,29.80,4,2,10,0.00
2012-11-26,37.8,33.7,31.1,27.5,24.6,20.0,80,70,60,30.23,29.88,4,2,9,0.05
2012-11-27,37.4,31.7,25.9,27.9,21.6,18.8,81,67,51,30.29,30.22,2,0,4,0.00
2012-11-28,36.3,32.5,27.8,30.2,23.8,20.0,89,70,60,30.25,30.16,5,2,11,0.01
2012-11-29,44.4,38.0,29.7,35.8,28.7,21.6,82,69,58,30.27,30.18,7,2,14,0.00
2012-11-30,37.4,28.9,24.2,32.7,25.0,21.6,92,85,77,30.38,30.27,5,3,12,0.00
2012-12-1,52.5,36.4,24.6,39.8,31.2,22.6,93,82,62,30.35,30.14,5,2,9,0.04
2012-12-2,54.5,51.4,46.7,50.3,45.8,39.8,96,82,62,30.14,29.88,6,3,13,0.32
2012-12-3,57.6,50.1,42.5,54.3,45.3,39.3,92,84,73,30.21,30.02,3,0,6,0.00
2012-12-4,65.9,57.4,44.5,55.7,51.9,42.1,95,83,65,30.02,29.86,5,3,12,0.25
2012-12-5,44.6,34.1,20.3,42.4,26.9,17.6,92,75,53,30.38,29.95,4,2,13,0.00
2012-12-6,41.0,30.1,18.4,26.1,21.2,16.2,93,72,44,30.40,30.01,2,0,5,0.00
2012-12-7,46.5,42.0,34.9,40.5,34.1,20.2,91,74,46,30.02,29.91,3,0,6,0.00
2012-12-8,44.4,40.7,34.2,43.4,39.0,28.9,97,94,82,30.16,29.75,2,0,7,0.20
2012-12-9,43.5,33.2,28.0,42.5,28.8,20.7,98,84,73,30.27,29.71,6,2,11,0.52
2012-12-10,52.7,43.2,33.8,51.3,40.6,28.6,98,90,81,29.75,29.49,7,2,12,0.38
2012-12-11,34.2,30.0,23.5,28.6,24.9,21.0,92,81,63,30.16,29.75,3,0,8,0.00
2012-12-12,39.0,32.9,28.5,33.1,28.7,24.3,94,84,75,30.42,30.16,6,1,10,0.03
2012-12-13,44.3,36.0,27.8,28.2,25.2,22.2,85,66,46,30.43,30.18,4,1,8,0.00
2012-12-14,44.8,35.6,25.5,34.0,27.7,21.2,96,74,54,30.26,30.15,3,1,10,0.00
2012-12-15,39.5,32.6,22.1,34.2,29.3,20.9,96,88,79,30.26,29.91,3,1,9,0.00
2012-12-16,57.7,48.0,38.8,44.6,39.5,31.9,84,73,60,29.92,29.64,7,2,13,0.01
2012-12-17,48.1,45.6,41.8,45.2,41.6,37.8,95,86,76,29.73,29.52,3,1,10,0.20
2012-12-18,41.9,40.4,35.3,41.1,37.8,31.6,97,91,78,29.74,29.46,3,1,8,0.34
2012-12-19,41.3,36.1,29.2,34.5,30.8,27.7,95,81,63,30.17,29.74,2,0,7,0.00
2012-12-20,43.8,36.4,29.2,37.6,30.1,26.0,90,78,60,30.16,29.34,9,2,13,0.18
2012-12-21,43.7,34.8,29.3,38.0,31.7,26.2,96,89,77,29.42,29.20,6,2,11,0.19
2012-12-22,33.2,30.1,27.8,26.7,23.9,21.4,92,78,64,29.94,29.42,5,3,11,0.00
2012-12-23,35.3,31.4,28.3,29.4,25.4,21.1,92,78,67,30.01,29.80,7,2,17,0.01
2012-12-24,31.8,29.0,27.6,25.7,21.7,19.1,92,74,64,30.05,29.85,3,1,11,0.00
2012-12-25,33.2,29.3,27.4,27.4,25.7,24.1,95,87,73,30.32,29.89,3,1,6,0.00
2012-12-26,28.9,25.6,22.2,25.1,22.1,17.8,95,87,75,30.33,29.78,9,4,15,0.00
2012-12-27,25.1,23.9,22.7,23.8,22.7,21.5,95,95,94,30.07,29.73,6,2,10,0.00
2012-12-28,26.4,23.6,19.2,24.9,22.2,17.8,96,95,93,30.14,30.02,3,0,5,0.00
2012-12-29,28.1,24.8,21.8,27.1,23.6,20.3,96,95,92,30.02,29.68,5,1,10,0.00
2012-12-30,29.1,25.2,20.8,24.9,19.7,16.6,93,80,62,30.25,29.87,6,1,12,0.00
2012-12-31,35.2,31.2,26.1,30.4,26.4,20.4,88,82,74,30.19,29.85,8,4,16,0.01
2013-1-1,32.7,22.4,10.0,27.8,15.8,7.2,91,76,59,30.05,29.88,4,1,11,0.00